User: anonymous   Login
Location: Unspecified
(0.0000°N, 0.0000°E)
Time: 12:50:37
(UTC+00:00)
Language:

Nadezhda 5 - Orbit

View from above orbital plane
View from above orbital plane
View from above satellite
View from above satellite

Ground track
Ground track

The orbit data is extracted from the following two-line orbital elements,

1 25567U 98072A   17229.73685910 +.00000020 +00000-0 +48091-5 0  9990
2 25567 082.9488 303.0924 0027003 060.6696 052.0961 13.71825152935423
Epoch (UTC): 17 August 2017 17:41:04
Eccentricity: 0.0027003
inclination: 82.9488°
perigee height: 973 km
apogee height: 1013 km
right ascension of ascending node: 303.0924°
argument of perigee: 60.6696°
revolutions per day: 13.71825152
mean anomaly at epoch: 52.0961°
orbit number at epoch: 93542

The dashed part of the orbit path shows where the satellite is in the earth's shadow,  

DLR